This demonstration page uses our WeatherBlox Daily Observations layout. Learn more.

Left ArrowRight Arrow

30.21309, -93.2044

Hourly Observations for July 16, 2019

Temp ( °F °C ) Dew Point ( °F °C ) Humidity (%) Winds ( mph kmh ) Pressure ( in mb ) Visibility ( mi km ) Precip ( " mm )
12:15 am 00:15 Clear with Heavy Rain 79 26.2 78 25.8 98 98 ESE 7 11 30.00 1016 7 11 0.00 0.00
12:35 am 00:35 Clear with Heavy Rain 79 26.2 78 25.8 98 98 ESE 7 11 30.00 1016 5 8 0.00 0.00
12:55 am 00:55 Partly Cloudy with Heavy Rain 79 26.1 78 25.8 98 98 ESE 8 13 30.00 1016 5 8 0.00 0.00
1:15 am 01:15 Mostly Cloudy with Heavy Rain 79 26 78 25.6 98 98 undefined N/A 30.00 1016 5 8 0.00 0.00
1:35 am 01:35 Mostly Cloudy with Heavy Rain 78 25.6 78 25.3 98 98 SE 5 7 30.00 1016 4 6 0.00 0.00
1:55 am 01:55 Mostly Cloudy with Heavy Rain 79 26 78 25.6 98 98 ESE 6 9 30.00 1016 5 8 0.00 0.00
2:15 am 02:15 Partly Cloudy with Heavy Rain 79 26.1 79 25.9 99 99 SE 7 11 30.00 1016 5 8 0.00 0.00
2:35 am 02:35 Mostly Cloudy with Heavy Rain 79 26.2 79 26 99 99 ESE 7 11 30.00 1016 5 8 0.00 0.00
2:55 am 02:55 Cloudy with Heavy Rain 79 26.3 79 26.1 99 99 SE 7 11 30.00 1016 5 8 0.00 0.00
3:15 am 03:15 Mostly Cloudy with Heavy Rain 79 26.3 79 26.1 99 99 ESE 8 13 30.00 1016 5 8 0.00 0.00
3:35 am 03:35 Mostly Cloudy with Heavy Rain 79 26.3 79 26.1 99 99 ESE 8 13 30.00 1016 4 6 0.01 0.25
3:55 am 03:55 Mostly Cloudy with Heavy Rain 80 26.5 79 26.1 98 98 SE 7 11 30.00 1016 7 11 0.01 0.25
4:15 am 04:15 Mostly Cloudy with Rain 80 26.6 79 26.1 97 97 ESE 8 13 30.00 1016 7 11 0.00 0.00
4:35 am 04:35 Mostly Cloudy with Heavy Rain 80 26.7 79 26.1 97 97 SE 8 13 30.00 1016 7 11 0.00 0.00
4:55 am 04:55 Mostly Cloudy with Heavy Rain 80 26.6 79 26.1 97 97 ESE 8 13 30.00 1016 7 11 0.00 0.00
5:15 am 05:15 Cloudy with Heavy Rain 80 26.5 79 26 97 97 ESE 8 13 30.03 1017 5 8 0.00 0.00
5:35 am 05:35 Cloudy with Heavy Rain 80 26.5 79 26 97 97 ESE 8 13 30.03 1017 4 6 0.00 0.00
6:00 am 06:00 Partly Cloudy 79 26 79 26 100 100 ESE 8 13 30.03 1017 7 11 0.00 0.00
6:47 am 06:47 Mostly Sunny 79 26 79 26 100 100 ESE 7 11 30.03 1017 7 11 0.00 0.00
7:50 am 07:50 Partly Cloudy 81 27 79 26 94 94 ESE 7 11 30.06 1018 7 11 0.00 0.00
8:38 am 08:38 Mostly Cloudy 82 28 81 27 94 94 S 5 7 30.06 1018 7 11 0.00 0.00
8:45 am 08:45 Mostly Cloudy 84 29 81 27 89 89 S 5 7 30.06 1018 7 11 0.00 0.00
9:50 am 09:50 Mostly Cloudy 86 30 79 26 79 79 SSW 12 19 30.06 1018 10 16 0.00 0.00
10:55 am 10:55 Mostly Cloudy 88 31 77 25 70 70 S 13 20 30.06 1018 10 16 0.00 0.00
11:50 am 11:50 Mostly Cloudy 88 31 79 26 75 75 S 12 19 30.06 1018 10 16 0.00 0.00
12:50 pm 12:50 Mostly Cloudy 90 32 77 25 67 67 SSW 15 24 30.06 1018 10 16 0.00 0.00
1:50 pm 13:50 Mostly Cloudy 90 32 79 26 71 71 SSW 15 24 30.06 1018 10 16 0.00 0.00
2:50 pm 14:50 Mostly Cloudy 90 32 79 26 71 71 S 17 28 30.06 1018 10 16 0.00 0.00
3:50 pm 15:50 Partly Cloudy 90 32 77 25 67 67 SSW 14 22 30.06 1018 10 16 0.00 0.00
4:50 pm 16:50 Partly Cloudy 88 31 77 25 70 70 S 14 22 30.03 1017 10 16 0.00 0.00
5:50 pm 17:50 Partly Cloudy 90 32 77 25 67 67 S 14 22 30.03 1017 10 16 0.00 0.00
6:50 pm 18:50 Partly Cloudy 86 30 79 26 79 79 S 8 13 30.03 1017 10 16 0.00 0.00
7:55 pm 19:55 Partly Cloudy 84 29 79 26 84 84 S 8 13 30.03 1017 10 16 0.00 0.00
8:50 pm 20:50 Partly Cloudy 81 27 79 26 94 94 SE 8 13 30.03 1017 10 16 0.00 0.00
9:55 pm 21:55 Mostly Clear 81 27 77 25 89 89 ESE 7 11 30.03 1017 10 16 0.00 0.00
10:15 pm 22:15 Clear 80 26.7 78 25.5 93 93 ESE 7 11 30.06 1018 10 16 0.00 0.00
10:35 pm 22:35 Clear 79 26.2 78 25.3 95 95 E 7 11 30.06 1018 10 16 0.00 0.00
10:55 pm 22:55 Clear 78 25.8 77 25 95 95 E 8 13 30.06 1018 10 16 0.00 0.00
11:15 pm 23:15 Partly Cloudy 78 25.7 77 25.2 97 97 SE 5 7 30.06 1018 10 16 0.00 0.00
11:35 pm 23:35 Partly Cloudy 78 25.7 78 25.3 98 98 SE 7 11 30.06 1018 7 11 0.00 0.00
11:55 pm 23:55 Partly Cloudy 78 25.6 77 25.2 98 98 ESE 6 9 30.06 1018 7 11 0.00 0.00

Powered by AerisWeather